Dewpoint
16 13 13 11 5 3 2 4 10 13 11 11 10 9 8 7 8 10 9 13 15 12 8 7 10 8 8 8 17 27 32 31 35 42 41 40 43 48 48 50 51 52 51 52 53 53 53 54 54 55 55 55 56 56 56 55 55 55 53 55 55 56 56 56 55 55 56 55 57 60 60 61 61 62 63 64 65 64 65 65 65 65 66 67 66 67
16 16 15 11 8 8 12 14 16 14 12 10 8 9 7 9 7 8 11 14 15 12 9 13 10 11 11 13 17 23 26 22 26 37 44 44 47 48 51 51 51 51 51 51 52 52 52 51 53 53 53 54 54 54 54 54 53 53 53 53 53 52 54 55 55 55 55 54 54 56 54 58 60 60 62 62 64 64 64 64 64 65 65 65 66 66
19 14 14 12 14 15 15 13 13 12 11 11 10 11 9 9 10 11 11 14 16 13 10 12 13 12 14 15 19 23 21 24 30 38 43 46 48 49 50 51 50 48 48 49 50 50 49 50 50 51 52 51 50 50 52 52 52 52 50 50 51 52 52 53 55 54 54 55 56 55 54 54 57 61 56 58 60 60 58 60 60 61 64 64 64 65
20 14 13 15 15 14 14 14 13 13 13 12 10 11 10 7 12 8 12 16 17 14 12 17 16 14 17 21 23 24 22 32 38 40 45 48 48 48 50 48 48 48 48 49 48 48 47 48 49 48 47 49 48 48 49 51 51 51 50 51 51 51 51 51 54 54 56 56 56 57 57 56 55 53 55 58 58 57 57 57 57 58 58 58 60 63
12 12 15 15 14 13 12 14 13 12 12 11 11 11 12 11 13 11 11 17 18 17 17 15 16 14 15 17 19 26 27 29 33 34 39 46 47 49 49 48 49 48 49 47 47 48 47 47 47 47 47 49 49 47 48 50 50 49 50 51 51 50 51 52 53 54 54 54 53 55 57 57 57 57 55 54 53 53 54 55 55 56 56 55 55 58
11 12 14 14 14 14 14 14 13 11 11 11 14 12 11 11 12 14 14 14 14 16 17 16 17 13 17 17 17 28 29 27 29 34 37 42 47 47 48 48 48 46 48 48 47 47 47 47 47 47 49 49 48 48 49 49 49 50 50 51 51 49 50 50 52 53 52 52 50 51 49 48 49 48 51 50 51 51 51 50 53 55 54 53 54 55
13 18 13 12 13 13 13 12 13 13 12 12 12 14 13 13 13 13 14 15 16 14 22 19 15 14 17 20 20 21 22 25 31 34 35 39 43 45 46 47 47 46 46 47 47 45 46 47 46 48 49 47 47 48 49 49 50 50 50 51 50 49 50 51 52 52 51 50 51 51 51 51 50 48 50 52 54 53 52 53 54 53 55 53 54 56
16 15 14 14 13 13 13 15 14 15 11 10 15 14 14 14 13 13 14 15 15 15 15 19 16 14 15 16 20 22 24 21 27 33 33 37 40 42 45 47 47 45 46 46 46 46 46 46 46 47 48 47 47 49 49 51 50 50 50 51 50 50 50 51 51 51 52 50 50 51 51 51 49 49 51 52 52 53 54 53 54 54 54 54 53 54
16 13 13 14 14 11 12 14 14 15 12 12 16 15 14 13 14 14 13 13 14 16 18 16 20 19 16 17 24 25 23 21 24 26 30 33 39 42 44 45 45 45 46 46 45 45 45 46 47 47 46 47 48 47 49 50 51 51 50 50 51 51 50 51 52 51 50 51 51 51 50 49 49 50 51 49 51 51 53 54 55 56 55 55 56 55
16 18 17 16 15 11 9 16 16 15 13 20 20 19 19 17 17 16 16 14 18 21 21 18 16 18 16 14 19 28 22 20 22 23 25 30 38 40 44 45 45 43 44 42 44 45 47 47 47 47 46 47 49 50 50 51 51 50 50 50 50 50 49 51 52 51 51 51 51 50 50 51 49 49 49 50 50 52 52 52 53 54 54 54 54 55
17 26 25 17 16 16 19 21 19 16 20 21 19 17 18 18 20 19 21 20 20 19 19 19 19 16 15 17 19 24 23 23 22 23 24 26 34 40 45 45 45 42 42 42 43 43 46 47 48 46 47 48 50 51 50 50 49 51 51 50 49 50 49 50 50 50 50 50 49 49 50 51 51 51 51 50 50 50 52 52 52 52 52 53 54 54
17 22 23 20 24 20 20 21 22 21 21 20 18 16 16 20 22 23 21 22 20 17 17 19 21 24 16 15 23 25 25 22 23 23 26 27 30 38 44 43 43 42 41 41 42 42 46 48 47 46 48 48 49 51 51 50 49 49 49 50 49 50 50 49 50 50 49 48 49 49 50 50 50 51 50 49 50 49 50 51 51 51 51 52 52 54
18 17 16 22 30 22 20 17 20 20 21 19 16 15 17 17 20 17 19 18 17 14 19 21 21 18 17 19 18 18 18 20 25 22 26 28 30 38 41 43 43 42 41 40 40 42 45 45 47 48 47 49 49 49 50 49 50 49 49 49 49 49 49 49 49 49 49 49 49 49 49 49 50 50 51 51 50 50 50 50 50 51 50 50 51 51
19 19 19 19 23 26 22 18 19 17 18 18 17 18 17 15 15 16 15 18 16 17 18 21 25 18 19 17 19 21 24 23 25 30 31 31 34 34 37 42 42 42 40 40 40 40 43 43 44 46 46 45 48 49 49 48 49 48 48 49 49 48 49 49 49 48 49 49 49 50 49 49 48 48 50 50 49 50 50 50 50 50 50 50 52 52
17 17 17 19 19 24 22 18 18 18 18 18 17 15 19 19 16 17 15 15 16 16 24 25 19 18 17 26 22 27 25 29 28 26 31 36 35 38 35 37 40 41 41 39 38 39 43 46 46 46 46 46 47 48 49 48 47 47 47 48 48 48 49 49 49 49 49 47 48 48 47 48 49 47 47 47 49 50 50 51 51 51 51 50 51 51
17 18 20 21 22 22 21 22 22 19 19 17 18 17 19 20 20 18 20 22 20 18 20 23 22 20 20 28 28 29 25 25 28 28 33 33 33 33 35 37 39 40 40 39 40 42 45 47 47 47 47 47 46 47 47 46 46 48 47 48 48 48 49 49 49 48 49 48 48 49 49 49 49 49 48 48 49 49 51 52 51 52 52 52 51 52
18 20 21 20 22 21 21 22 22 22 20 24 19 19 19 21 20 22 25 32 30 22 17 21 19 17 22 21 24 25 24 23 25 27 27 29 31 36 36 37 39 40 40 41 41 42 45 46 47 46 47 47 45 44 46 46 46 47 48 48 49 49 48 48 47 47 47 48 48 48 48 48 48 49 48 48 49 50 51 51 51 50 50 52 52 52
22 21 20 20 21 21 22 22 21 22 22 22 21 21 24 23 23 25 20 23 21 17 19 18 17 18 15 15 24 26 23 24 24 25 28 35 36 35 37 39 39 39 41 42 42 43 44 44 45 44 44 44 45 45 45 46 47 48 48 47 46 46 47 46 46 46 47 47 48 48 47 48 48 48 47 48 48 49 49 50 49 50 49 49 49 49
23 20 20 20 20 21 23 23 22 24 24 21 20 25 23 22 22 23 22 19 19 19 18 17 18 17 15 19 17 22 25 27 27 26 26 28 32 34 36 39 40 40 42 42 42 42 43 44 44 45 44 41 45 46 44 45 47 45 48 44 46 46 47 46 46 47 47 47 47 46 47 48 47 46 46 46 48 49 48 47 48 48 48 49 49 49
28 23 21 21 21 23 22 22 21 24 25 25 24 23 25 25 25 25 26 25 23 19 20 16 14 19 21 21 22 23 25 28 26 27 27 26 28 30 31 33 37 41 43 41 41 41 42 43 43 43 45 41 43 42 43 46 47 46 47 46 45 47 47 48 46 47 48 46 46 46 46 47 45 44 44 46 47 47 46 45 46 46 48 48 47 48
27 29 22 24 23 23 23 23 24 23 24 25 24 22 23 27 26 25 26 24 24 21 19 19 18 19 22 21 21 23 26 28 29 29 29 29 30 31 32 33 37 39 43 42 41 41 42 44 44 43 46 42 41 42 44 45 47 46 46 46 46 47 47 47 48 47 47 47 46 47 47 47 47 46 46 47 46 46 46 46 46 47 47 46 47 48
28 28 25 25 26 24 23 25 26 27 28 29 27 24 23 25 24 21 20 19 19 19 20 19 18 22 23 25 28 25 27 28 29 30 31 29 30 33 34 38 39 39 43 45 43 42 42 44 44 42 43 44 43 42 41 43 44 42 44 43 45 47 46 46 46 46 46 46 47 48 47 47 46 45 46 46 46 47 45 46 46 48 46 48 47 47
36 34 30 27 27 27 26 24 26 28 27 26 27 26 25 25 25 26 23 23 24 22 21 21 21 21 28 28 27 27 28 27 31 32 32 30 32 33 34 34 40 43 42 44 46 43 43 44 45 42 43 44 43 44 44 44 44 42 43 44 46 45 46 46 46 45 45 45 46 47 46 46 46 45 46 46 46 46 47 47 48 47 47 47 46 46
40 32 30 30 29 28 28 27 31 35 28 27 28 28 28 28 26 24 24 27 26 30 27 24 23 23 33 38 31 31 32 32 33 34 32 33 34 35 35 37 37 41 45 45 46 46 45 45 46 43 42 42 41 44 44 44 43 44 44 43 44 45 45 45 45 44 44 44 45 46 45 45 45 45 45 47 46 47 48 48 48 47 47 46 46 45
32 34 31 28 28 30 30 29 29 30 31 29 29 31 30 28 28 30 29 30 25 27 27 23 21 21 33 32 31 30 30 30 29 30 36 35 36 36 35 36 38 41 43 44 45 46 46 45 44 41 40 39 39 41 45 44 43 43 44 44 44 44 44 44 44 43 43 44 45 44 44 45 46 46 48 48 47 49 49 48 48 47 46 46 45 45
38 35 32 27 26 24 24 24 26 28 29 30 32 31 30 29 30 30 25 24 22 26 27 23 23 25 26 31 30 31 30 31 32 31 32 33 36 36 36 36 40 42 42 44 45 46 46 44 41 40 41 38 40 39 42 44 42 41 40 43 46 46 46 44 44 43 43 43 43 42 44 46 47 47 48 48 48 48 48 48 47 46 46 44 44 44
38 39 37 34 31 29 30 30 34 35 33 30 32 31 30 31 30 31 30 26 23 27 27 27 28 28 26 25 25 25 27 29 30 31 30 30 33 36 40 40 40 43 44 44 45 45 46 46 45 41 44 43 43 43 42 42 40 39 41 44 45 43 44 44 45 43 42 43 42 42 44 45 46 46 47 48 48 48 47 46 47 45 43 43 43 43
39 35 36 37 37 36 36 36 37 36 36 36 35 33 32 32 33 33 28 25 29 27 24 27 29 29 26 27 27 28 28 29 30 31 30 31 34 35 38 41 46 42 42 44 44 44 45 46 46 47 47 47 44 44 42 39 39 39 42 43 43 42 44 44 45 42 42 41 41 42 44 45 45 46 46 47 46 46 47 46 46 45 44 44 43 41
39 33 37 38 37 37 37 37 37 36 36 35 35 34 33 32 33 34 33 33 33 27 25 29 30 29 29 32 33 30 30 31 31 32 33 35 35 35 37 38 37 38 41 41 44 45 45 44 47 49 48 47 46 46 43 38 38 42 42 42 42 42 42 43 43 42 40 40 41 43 44 44 44 45 46 45 45 46 46 45 45 42 42 41 43 44
39 35 36 36 36 36 36 35 36 35 35 34 34 33 33 33 33 33 34 34 33 32 32 32 33 32 31 33 34 34 34 33 32 33 35 32 32 33 33 34 34 36 36 38 41 42 44 43 45 48 49 47 45 44 38 39 38 38 42 42 42 41 42 42 43 41 39 39 41 43 42 42 44 43 44 45 45 44 44 43 41 40 40 41 42 42
38 32 37 36 33 34 35 35 35 34 34 33 31 32 32 33 34 34 32 33 33 32 32 32 33 32 33 35 34 34 35 32 32 33 32 33 32 34 34 34 35 36 35 36 40 42 43 44 46 47 46 46 43 42 40 40 41 41 41 41 41 40 41 39 41 40 39 39 41 42 41 41 42 43 43 44 44 44 43 40 42 43 42 42 42 42
41 33 35 35 31 30 32 33 34 34 32 33 32 32 31 32 32 32 32 34 35 34 34 34 32 31 33 32 33 33 34 32 33 33 34 34 33 35 35 35 35 37 38 37 38 41 44 44 45 45 45 43 42 41 40 41 41 41 40 41 40 41 41 41 40 39 39 40 42 41 40 42 42 42 43 43 42 41 41 41 41 41 41 41 41 42
36 35 32 31 29 29 29 32 34 35 34 31 31 32 33 35 34 32 32 35 38 37 34 31 31 34 34 34 32 32 33 32 32 31 35 35 36 37 34 34 34 36 38 38 38 40 43 42 44 46 44 42 39 39 42 42 41 41 41 41 41 40 41 39 39 39 40 41 40 39 42 41 42 42 42 41 41 41 40 39 39 39 39 40 41 41
36 36 32 34 29 28 30 32 35 32 24 23 34 33 32 32 33 35 35 36 37 38 35 36 34 34 33 32 33 34 34 35 36 38 40 40 39 38 37 37 36 36 40 41 42 40 42 42 43 43 43 42 42 41 43 43 42 43 43 41 40 40 39 37 38 39 39 39 38 39 41 42 41 41 41 42 41 40 38 39 38 39 39 39 40 40
36 35 32 33 30 28 31 32 28 24 24 37 34 36 34 35 32 32 32 32 34 35 35 33 32 31 33 35 36 36 37 36 38 39 39 40 43 41 40 37 37 41 43 44 43 42 43 44 43 43 44 43 42 45 45 42 43 43 41 41 39 39 39 38 38 40 38 39 40 41 42 41 41 41 41 41 40 40 38 39 39 38 38 39 39 39
34 33 32 32 32 31 29 28 23 20 33 34 36 37 39 35 34 35 34 33 34 34 37 35 36 35 36 36 36 36 37 38 36 38 39 39 39 40 39 39 39 40 41 41 44 45 44 43 44 45 45 45 44 43 41 42 42 40 40 40 38 39 38 39 39 38 38 39 40 41 41 41 41 42 41 40 39 38 38 39 39 39 39 39 39 39
37 36 35 31 34 29 29 28 27 32 32 33 34 37 39 36 37 35 30 32 38 37 36 37 37 37 37 37 37 36 37 36 38 37 38 38 40 40 40 39 40 40 41 43 43 44 44 44 44 45 46 45 43 42 42 42 40 39 39 39 38 38 37 39 38 36 38 40 40 41 41 41 41 41 41 39 37 35 38 39 38 39 39 38 38 37
39 37 38 33 31 34 29 27 26 25 25 31 38 40 41 43 41 41 37 36 39 37 37 38 38 38 38 37 37 38 39 34 41 34 39 39 41 40 39 40 39 39 39 42 41 43 45 45 45 46 44 44 44 44 43 43 41 40 39 39 38 37 39 38 36 36 38 40 39 41 41 41 40 39 39 37 35 37 39 39 39 38 38 37 36 35
40 39 39 34 30 31 29 27 26 25 26 34 38 39 40 44 42 43 39 34 40 39 38 39 38 37 37 37 38 38 35 31 30 37 41 42 42 42 40 38 38 39 38 40 41 42 43 45 44 43 43 45 44 43 43 41 41 38 38 38 38 38 37 37 35 38 38 40 40 41 41 40 40 38 37 37 37 40 39 38 38 38 37 37 36 36
36 39 36 33 32 30 29 27 25 28 29 37 40 39 39 41 43 41 29 28 38 40 39 40 37 36 37 37 37 37 35 31 32 35 41 42 42 42 44 43 41 41 39 40 40 43 42 44 42 41 43 43 43 43 42 40 39 39 38 37 37 38 38 37 38 37 39 40 41 41 40 41 40 40 40 39 39 39 39 39 38 38 38 37 35 34
31 31 34 30 29 29 30 28 28 29 38 40 41 41 41 43 39 31 27 33 40 40 40 39 38 38 37 37 37 34 36 38 39 41 42 41 41 41 41 42 44 42 42 42 43 44 43 42 40 39 41 41 42 41 40 38 39 40 38 39 39 39 39 39 39 39 40 41 40 39 39 39 39 40 41 40 39 39 39 38 38 38 37 36 35 35
27 31 29 31 29 28 28 27 27 28 38 40 38 43 45 40 31 28 40 44 44 41 41 40 42 40 39 37 37 36 37 38 39 40 39 40 40 41 41 42 42 45 45 44 46 45 43 40 41 41 41 41 41 39 39 38 39 39 38 39 39 41 40 40 38 39 39 39 38 39 40 40 40 41 41 40 39 39 38 38 38 37 37 35 35 35
30 29 25 25 29 30 29 27 26 24 36 42 40 38 41 31 32 40 40 39 41 39 38 37 38 37 37 37 37 38 38 38 39 38 38 39 39 40 41 43 43 43 46 45 45 44 41 41 41 41 42 42 41 38 38 39 40 39 39 39 41 41 40 41 41 38 38 39 40 40 41 41 39 39 41 40 39 38 38 38 37 37 37 36 35 34
34 29 28 30 34 27 25 24 27 35 38 42 39 31 34 35 38 39 38 36 36 36 36 36 37 37 37 37 37 38 39 38 38 38 38 38 39 38 39 40 40 43 46 46 46 46 43 41 41 41 43 41 40 39 39 40 39 39 39 40 41 41 41 41 40 38 40 40 40 40 41 41 41 41 40 38 37 36 38 38 37 37 36 36 35 33
39 35 35 28 34 30 28 29 31 33 34 37 42 40 38 38 38 38 38 37 36 35 37 35 37 38 39 38 38 37 37 38 37 38 38 38 38 38 38 39 40 41 43 47 46 46 43 41 41 41 43 41 42 40 39 39 39 40 40 40 42 40 40 41 40 40 40 40 39 40 40 40 40 39 40 39 38 37 35 36 37 35 36 36 34 33
34 36 40 38 33 36 37 36 37 35 36 35 34 35 36 37 37 37 37 36 36 36 36 36 38 38 38 39 37 37 37 38 38 38 38 38 38 38 39 39 41 42 45 46 45 45 44 42 41 42 43 42 42 41 40 40 39 41 41 41 41 39 40 40 41 38 39 39 40 40 39 39 39 38 39 39 38 38 36 36 35 35 35 34 34 32
32 36 36 34 35 33 28 34 33 33 34 34 33 35 37 37 37 37 37 37 37 36 37 37 37 38 39 38 38 38 37 38 38 38 38 37 37 37 38 40 42 44 46 45 44 44 43 42 41 41 42 42 42 41 40 41 40 40 40 40 40 40 40 39 41 40 40 40 39 39 38 39 37 37 39 39 38 38 37 36 34 35 34 33 32 31
30 40 35 34 34 32 31 34 34 34 34 35 34 34 35 35 36 37 37 37 37 37 37 37 38 38 38 38 38 38 38 38 38 38 37 37 37 37 39 41 43 44 47 46 45 44 42 41 41 42 41 41 42 41 40 40 39 39 40 40 40 40 40 40 41 40 37 39 39 37 36 38 36 37 36 36 36 35 35 35 36 33 34 33 31 29
34 38 32 35 34 33 34 34 32 33 34 33 34 36 37 37 37 37 37 37 36 36 36 36 37 37 38 38 39 39 38 38 38 38 37 37 38 40 42 43 43 45 46 45 44 43 41 41 40 41 41 40 41 40 40 40 40 40 41 40 40 40 40 40 41 40 40 39 37 37 36 38 38 37 36 35 35 35 36 34 35 34 35 35 30 28
34 33 34 35 33 31 29 31 33 30 31 33 34 35 35 37 37 38 38 38 37 36 36 37 37 38 38 39 39 38 38 38 39 39 39 40 41 43 44 44 44 46 46 45 44 43 43 42 42 41 40 39 40 40 39 40 39 40 40 39 39 40 40 40 40 40 38 35 36 35 36 37 35 36 34 32 31 32 34 32 33 33 33 32 29 29
33 36 37 33 31 29 31 32 35 36 36 36 37 36 37 37 37 37 37 38 38 38 37 37 37 38 38 38 38 38 39 39 40 40 41 41 42 43 44 45 45 45 45 44 43 43 42 43 42 41 40 39 40 39 38 39 39 39 39 39 40 40 39 39 38 38 37 35 34 35 35 35 35 34 33 31 31 31 27 30 31 31 31 28 30 29